This is the latest recevied weather packets stored in our database for station/object K7CTM. If no packets are shown the sender has not sent any weather packets the latest 10 day(s).
| Time | Temp. | Humidity | Pressure | Rain* | Wind** | Luminosity | Snow |
|---|---|---|---|---|---|---|---|
| 1777692709 | 15.56° C | 27% | 1027.5 hPa | 0 mm | - | 0 W/m² | - |
| 1777692405 | 16.11° C | 26% | 1027.4 hPa | 0 mm | - | 0 W/m² | - |
| 1777692101 | 16.11° C | 24% | 1027.5 hPa | 0 mm | - | 0 W/m² | - |
| 1777691799 | 15.56° C | 25% | 1027.5 hPa | 0 mm | - | 0 W/m² | - |
| 1777691496 | 16.11° C | 24% | 1027.3 hPa | 0 mm | - | 0 W/m² | - |
| 1777691195 | 16.67° C | 23% | 1027.3 hPa | 0 mm | - | 0 W/m² | - |
| 1777690893 | 17.22° C | 22% | 1027.2 hPa | 0 mm | - | 0 W/m² | - |
| 1777690591 | 16.67° C | 23% | 1027.2 hPa | 0 mm | - | 0 W/m² | - |
| 1777690288 | 17.22° C | 25% | 1027.1 hPa | 0 mm | - | 0 W/m² | - |
| 1777689985 | 18.33° C | 21% | 1027 hPa | 0 mm | - | 0 W/m² | - |
| 1777689683 | 18.89° C | 20% | 1027.1 hPa | 0 mm | - | 0 W/m² | - |
| 1777689381 | 18.33° C | 20% | 1027.1 hPa | 0 mm | - | 1 W/m² | - |
| 1777689078 | 18.89° C | 19% | 1027.1 hPa | 0 mm | - | 2 W/m² | - |
| 1777688774 | 18.89° C | 18% | 1026.9 hPa | 0 mm | - | 3 W/m² | - |
| 1777688472 | 18.89° C | 19% | 1027 hPa | 0 mm | - | 5 W/m² | - |
| 1777688169 | 19.44° C | 19% | 1027 hPa | 0 mm | - | 8 W/m² | - |
| 1777687866 | 20° C | 19% | 1027.1 hPa | 0 mm | - | 11 W/m² | - |
| 1777687564 | 20° C | 18% | 1027.1 hPa | 0 mm | - | 14 W/m² | - |
| 1777687260 | 20.56° C | 18% | 1027.2 hPa | 0 mm | - | 17 W/m² | - |
| 1777686958 | 20.56° C | 18% | 1026.9 hPa | 0 mm | - | 21 W/m² | - |
| 1777686654 | 20.56° C | 17% | 1027 hPa | 0 mm | - | 24 W/m² | - |
| 1777686351 | 20.56° C | 17% | 1027 hPa | 0 mm | - | 27 W/m² | - |
| 1777686049 | 21.11° C | 16% | 1026.9 hPa | 0 mm | - | 30 W/m² | - |
| 1777685743 | 21.11° C | 16% | 1026.9 hPa | 0 mm | - | 33 W/m² | - |
| 1777685440 | 20.56° C | 16% | 1026.9 hPa | 0 mm | - | 37 W/m² | - |
* Rain latest hour (hover to see other rain measurements)
** Current wind speed in m/s (hover to see current wind gust speed)